Date String (YYYY-MM-DD hh:mm:ss) UTC,Instrument flags,absolute air pressure of the measurement (hPa),sample flow rate (lpm),inlet stack bypass flow (lpm),air temperature of the measurement (°C),ambient temperature measured by the external sensor (°C),aerosol sample conditioner tube jacket temperature (°C),OPC LED temperature (°C),internal box temperature (°C),relative humidity of the measurement (%),span deviation,mass concentration of particles derived from Lorenz-Mie calculation of OPC scattering (μg/m³),mass concentration of particles derived from Lorenz-Mie calculation of OPC scattering (μg/m³),mass concentration of particles derived from Lorenz-Mie calculation of OPC scattering (μg/m³)
DateTimeUTC,F1_M11,P_M11,Q1_M11,Q2_M11,T1_M11,T2_M11,T3_M11,T4_M11,T5_M11,U1_M11,ZSPAN_M11,X2_M11,X0_M11,X1_M11
2023-10-28 13:00:00,SystemResetWarning,0830.9,5.00,000.00,021.5,020.1,000.0,029.9,023.0,13.0,0000.0,0004.71,0012.37,0003.84
2023-10-28 13:01:00,SystemResetWarning,0831.0,5.00,000.00,021.5,020.0,000.0,029.9,023.0,13.0,0000.0,0004.71,0011.23,0003.85
2023-10-28 13:02:00,SystemResetWarning,0831.1,5.01,000.00,021.5,020.0,000.0,029.9,022.9,13.1,0000.0,0004.73,0010.97,0003.86
2023-10-28 13:03:00,SystemResetWarning,0831.1,5.00,000.00,021.5,020.0,000.0,029.9,022.9,13.2,0000.0,0004.76,0010.58,0003.87
2023-10-28 13:04:00,SystemResetWarning,0831.2,5.00,000.00,021.4,020.0,000.0,029.9,022.9,13.3,0000.0,0004.75,0010.62,0003.88
2023-10-28 13:05:00,SystemResetWarning,0831.2,5.01,000.00,021.4,020.0,000.0,029.9,022.9,13.4,0000.0,0004.78,0010.72,0003.88
2023-10-28 13:06:00,SystemResetWarning,0831.3,5.00,000.00,021.4,019.9,000.0,029.9,022.8,13.4,0000.0,0004.79,0010.14,0003.88
2023-10-28 13:07:00,SystemResetWarning,0831.3,5.01,000.00,021.4,019.9,000.0,029.9,022.8,13.6,0000.0,0004.83,0010.06,0003.88
2023-10-28 13:08:00,SystemResetWarning,0831.3,5.00,000.00,021.4,019.9,000.0,029.9,022.8,13.8,0000.0,0004.87,0010.80,0003.89
2023-10-28 13:09:00,SystemResetWarning,0831.3,5.00,000.00,021.4,019.9,000.0,029.8,022.8,13.9,0000.0,0004.87,0011.21,0003.90
2023-10-28 13:10:00,SystemResetWarning,0831.3,4.99,000.00,021.4,019.9,000.0,029.8,022.8,14.0,0000.0,0004.88,0011.76,0003.91
2023-10-28 13:11:00,SystemResetWarning,0831.3,5.00,000.00,021.3,019.9,000.0,029.8,022.8,14.1,0000.0,0004.92,0012.23,0003.92
2023-10-28 13:12:00,SystemResetWarning,0831.3,4.99,000.00,021.3,019.8,000.0,029.8,022.8,14.2,0000.0,0004.95,0012.35,0003.92
2023-10-28 13:13:00,SystemResetWarning,0831.3,5.00,000.00,021.3,019.8,000.0,029.8,022.7,14.3,0000.0,0004.95,0012.75,0003.92
2023-10-28 13:14:00,SystemResetWarning,0831.3,5.00,000.00,021.3,019.8,000.0,029.8,022.8,14.4,0000.0,0004.95,0013.71,0003.91
2023-10-28 13:15:00,SystemResetWarning,0831.2,5.00,000.00,021.3,019.8,000.0,029.7,022.8,14.4,0000.0,0004.97,0013.43,0003.91
2023-10-28 13:16:00,SystemResetWarning,0831.2,5.01,000.00,021.4,020.3,000.0,029.7,023.1,14.5,0000.0,0004.97,0013.30,0003.91
2023-10-28 13:17:00,SystemResetWarning,0831.2,5.00,000.00,021.5,021.2,000.0,029.6,023.4,14.4,0000.0,0005.00,0013.37,0003.91
2023-10-28 13:18:00,SystemResetWarning,0831.2,4.98,000.00,021.6,021.3,000.0,029.7,023.4,14.4,0000.0,0005.02,0013.39,0003.91
2023-10-28 13:19:00,SystemResetWarning,0831.2,5.00,000.00,021.6,021.2,000.0,029.7,023.3,14.5,0000.0,0005.02,0013.17,0003.92
2023-10-28 13:20:00,SystemResetWarning,0831.2,5.01,000.00,021.6,021.1,000.0,029.8,023.2,14.6,0000.0,0005.00,0013.57,0003.91
2023-10-28 13:21:00,SystemResetWarning,0831.1,5.00,000.00,021.6,021.0,000.0,029.8,023.2,14.6,0000.0,0005.02,0013.16,0003.90
2023-10-28 13:22:00,SystemResetWarning,0831.1,5.00,000.00,021.6,020.8,000.0,029.8,023.1,14.7,0000.0,0005.00,0013.38,0003.89
2023-10-28 13:23:00,SystemResetWarning,0831.1,5.00,000.00,021.6,020.7,000.0,029.8,023.1,14.7,0000.0,0004.98,0013.01,0003.89
2023-10-28 13:24:00,SystemResetWarning,0831.2,5.00,000.00,021.6,020.6,000.0,029.8,023.1,14.8,0000.0,0004.99,0013.10,0003.89
2023-10-28 13:25:00,SystemResetWarning,0831.2,5.00,000.00,021.5,020.4,000.0,029.9,023.1,14.8,0000.0,0004.99,0013.56,0003.89
2023-10-28 13:26:00,SystemResetWarning,0831.2,4.99,000.00,021.5,020.4,000.0,029.9,023.0,14.7,0000.0,0004.97,0014.26,0003.87
2023-10-28 13:27:00,SystemResetWarning,0831.2,5.00,000.00,021.5,020.3,000.0,029.9,023.0,14.7,0000.0,0004.96,0015.09,0003.86
2023-10-28 13:28:00,SystemResetWarning,0831.1,5.01,000.00,021.5,020.2,000.0,029.9,023.0,14.7,0000.0,0004.96,0015.78,0003.86
2023-10-28 13:29:00,SystemResetWarning,0831.1,5.00,000.00,021.5,020.2,000.0,029.9,023.0,14.7,0000.0,0004.93,0016.65,0003.85
2023-10-28 13:30:00,SystemResetWarning,0831.2,4.99,000.00,021.5,020.2,000.0,029.9,023.0,14.7,0000.0,0004.89,0016.45,0003.84
2023-10-28 13:31:00,SystemResetWarning,0831.2,5.00,000.00,021.5,020.4,000.0,029.8,023.2,14.6,0000.0,0004.89,0016.81,0003.83
2023-10-28 13:32:00,SystemResetWarning,0831.2,5.01,000.00,021.6,021.3,000.0,029.8,023.5,14.5,0000.0,0004.91,0017.00,0003.83
2023-10-28 13:33:00,SystemResetWarning,0831.1,5.00,000.00,021.8,021.9,000.0,029.8,023.7,14.4,0000.0,0004.90,0017.51,0003.83
2023-10-28 13:34:00,SystemResetWarning,0831.1,4.99,000.00,021.8,021.8,000.0,029.9,023.6,14.4,0000.0,0004.89,0018.21,0003.83
2023-10-28 13:35:00,SystemResetWarning,0831.1,5.01,000.00,021.8,021.6,000.0,029.9,023.5,14.4,0000.0,0004.85,0018.01,0003.82
2023-10-28 13:36:00,SystemResetWarning,0831.1,5.01,000.00,021.8,021.4,000.0,030.0,023.4,14.4,0000.0,0004.89,0017.02,0003.82
2023-10-28 13:37:00,SystemResetWarning,0831.2,5.01,000.00,021.8,021.2,000.0,030.0,023.4,14.4,0000.0,0004.90,0016.17,0003.83
2023-10-28 13:38:00,SystemResetWarning,0831.2,4.99,000.00,021.8,021.1,000.0,030.0,023.3,14.4,0000.0,0004.93,0015.62,0003.82
2023-10-28 13:39:00,SystemResetWarning,0831.3,5.00,000.00,021.8,020.9,000.0,030.0,023.3,14.4,0000.0,0004.94,0016.20,0003.82
2023-10-28 13:40:00,SystemResetWarning,0831.3,5.00,000.00,021.7,020.8,000.0,030.0,023.3,14.4,0000.0,0004.97,0015.69,0003.82
2023-10-28 13:41:00,SystemResetWarning,0831.3,4.99,000.00,021.7,020.7,000.0,030.0,023.2,14.5,0000.0,0005.05,0016.08,0003.83
2023-10-28 13:42:00,SystemResetWarning,0831.3,5.00,000.00,021.7,020.6,000.0,030.0,023.2,14.5,0000.0,0005.07,0015.25,0003.84
2023-10-28 13:43:00,SystemResetWarning,0831.3,5.00,000.00,021.7,020.5,000.0,030.0,023.2,14.5,0000.0,0005.07,0014.79,0003.84
2023-10-28 13:44:00,SystemResetWarning,0831.3,5.01,000.00,021.7,020.4,000.0,030.0,023.1,14.5,0000.0,0005.07,0014.21,0003.84
2023-10-28 13:45:00,SystemResetWarning,0831.4,5.00,000.00,021.7,020.3,000.0,030.0,023.1,14.6,0000.0,0005.08,0014.00,0003.84
2023-10-28 13:46:00,SystemResetWarning,0831.4,5.00,000.00,021.7,020.3,000.0,030.0,023.1,14.6,0000.0,0005.10,0013.99,0003.84
2023-10-28 13:47:00,SystemResetWarning,0831.4,5.01,000.00,021.7,020.6,000.0,030.0,023.3,14.6,0000.0,0005.06,0013.51,0003.84
2023-10-28 13:48:00,SystemResetWarning,0831.5,5.00,000.00,021.8,021.4,000.0,029.9,023.7,14.6,0000.0,0005.08,0014.02,0003.83
2023-10-28 13:49:00,SystemResetWarning,0831.5,5.00,000.00,021.9,021.9,000.0,030.0,023.8,14.4,0000.0,0005.03,0014.38,0003.83
2023-10-28 13:50:00,SystemResetWarning,0831.5,4.99,000.00,021.9,021.8,000.0,030.0,023.7,14.4,0000.0,0004.98,0013.29,0003.83
2023-10-28 13:51:00,SystemResetWarning,0831.5,4.99,000.00,021.9,021.6,000.0,030.1,023.6,14.4,0000.0,0004.95,0013.13,0003.82
2023-10-28 13:52:00,SystemResetWarning,0831.5,5.00,000.00,021.9,021.5,000.0,030.1,023.5,14.4,0000.0,0004.90,0013.03,0003.81
2023-10-28 13:53:00,SystemResetWarning,0831.4,5.00,000.00,021.9,021.3,000.0,030.1,023.5,14.4,0000.0,0004.88,0013.33,0003.81
2023-10-28 13:54:00,SystemResetWarning,0831.4,5.00,000.00,021.9,021.1,000.0,030.2,023.4,14.4,0000.0,0004.89,0013.47,0003.80
2023-10-28 13:55:00,SystemResetWarning,0831.5,5.01,000.00,021.9,021.0,000.0,030.2,023.4,14.4,0000.0,0004.86,0014.41,0003.79
2023-10-28 13:56:00,SystemResetWarning,0831.5,5.00,000.00,021.9,020.9,000.0,030.2,023.4,14.4,0000.0,0004.83,0013.87,0003.79
2023-10-28 13:57:00,SystemResetWarning,0831.5,5.00,000.00,021.8,020.8,000.0,030.2,023.3,14.5,0000.0,0004.80,0013.70,0003.78
2023-10-28 13:58:00,SystemResetWarning,0831.5,5.00,000.00,021.8,020.7,000.0,030.2,023.3,14.5,0000.0,0004.75,0013.48,0003.80
2023-10-28 13:59:00,SystemResetWarning,0831.5,4.99,000.00,021.8,020.6,000.0,030.2,023.3,14.5,0000.0,0004.69,0012.80,0003.82
